User: anonymous
Location: Columbia
(38.9520°N, 92.3340°W)
Time: 05:08:44
(UTC-05:00)
Language:

Iridium 15 - Orbit

View from above orbital plane
View from above orbital plane
View from above satellite
View from above satellite

Ground track
Ground track

The orbit data is extracted from the following two-line orbital elements,

1 24869U 97034A   14232.24009663  .00000172  00000-0  54351-4 0   290
2 24869 086.3933 093.1973 0002111 101.2889 029.0307 14.34220209896000
Epoch (UTC): 20 August 2014 05:45:44
Eccentricity: 0.0002111
inclination: 86.3933°
perigee height: 776 km
apogee height: 779 km
right ascension of ascending node: 93.1973°
argument of perigee: 101.2889°
revolutions per day: 14.34220209
mean anomaly at epoch: 29.0307°
orbit number at epoch: 89600

The dashed part of the orbit path shows where the satellite is in the earth's shadow,  

DLR